Andrews, NC

12:32 AM EDT on August 20, 2017 (GMT -0400)
Andrews

Weather History for KRHP - May, 2013

Change the Weather History Date:

Tuesday, May 21, 2013

  Actual Average (KMMI) Record (KMMI)
Temperature  
Mean Temperature 73 °F -  
Max Temperature 87 °F 79 °F 84 °F (2014)
Min Temperature 59 °F 54 °F 53 °F (2014)
Cooling Degree Days 8    
Growing Degree Days 23 (Base 50)    
Moisture  
Dew Point 63 °F    
Average Humidity 79    
Maximum Humidity 100    
Minimum Humidity 41    
Precipitation  
Precipitation 0.14 in - - ()
Sea Level Pressure  
Sea Level Pressure 30.05 in    
Wind  
Wind Speed 2 mph (WSW)    
Max Wind Speed 14 mph    
Max Gust Speed 20 mph    
Visibility 7 miles    
Events Fog , Rain    
Averages and records for this station are not official NWS values.
T = Trace of Precipitation, MM = Missing Value Source: NWS Daily Summary

Daily Weather History Graph

Daily Weather History Graph

Search for Another Location

Airport or City:

Trip Planner

Search our weather history database for the weather conditions in past years. The results will help you decide how hot, cold, wet, or windy it might be!

Date:

Astronomy

May. 21, 2013 Rise Set
Actual Time 6:27 AM EDT 8:37 PM EDT
Civil Twilight 5:58 AM EDT 9:06 PM EDT
Nautical Twilight 5:23 AM EDT 9:41 PM EDT
Astronomical Twilight 4:45 AM EDT 10:18 PM EDT
Moon 4:57 PM EDT (5/21) 3:45 AM EDT (5/21)
Length of Visible Light 15h 07m
Length of Day
14h 10m
Waxing Gibbous, 84% of the Moon is Illuminated
May 21
Waxing Gibbous
May 25
Full
May 31
Last Quarter
Jun 8
New
Jun 16
First Quarter

Hourly Weather History & Observations

Time (EDT) Temp. Heat Index Dew Point Humidity Pressure Visibility Wind Dir Wind Speed Gust Speed Precip Events Conditions
12:15 AM 64.9 °F - 64.4 °F 98% 30.08 in 7.0 mi Calm Calm - N/A   Mostly Cloudy
12:35 AM 65.3 °F - 64.4 °F 97% 30.08 in 7.0 mi Calm Calm - N/A   Mostly Cloudy
12:55 AM 64.0 °F - 63.5 °F 98% 30.08 in 5.0 mi Calm Calm - N/A   Overcast
1:15 AM 64.9 °F - 64.4 °F 98% 30.08 in 5.0 mi Calm Calm - N/A   Overcast
1:35 AM 65.3 °F - 64.4 °F 97% 30.08 in 5.0 mi Calm Calm - N/A   Overcast
1:55 AM 65.3 °F - 64.4 °F 97% 30.09 in 7.0 mi Calm Calm - N/A   Overcast
2:15 AM 64.6 °F - 64.0 °F 98% 30.08 in 5.0 mi Calm Calm - N/A   Overcast
2:35 AM 63.9 °F - 63.5 °F 99% 30.07 in 4.0 mi Calm Calm - N/A   Scattered Clouds
2:55 AM 63.5 °F - 63.5 °F 100% 30.08 in 3.0 mi Calm Calm - N/A   Scattered Clouds
3:15 AM 63.0 °F - 62.8 °F 99% 30.08 in 2.0 mi Calm Calm - N/A   Scattered Clouds
3:35 AM 61.9 °F - 61.9 °F 100% 30.07 in 2.5 mi Calm Calm - N/A   Scattered Clouds
3:55 AM 62.1 °F - 61.9 °F 99% 30.07 in 3.0 mi Calm Calm - N/A   Overcast
4:15 AM 62.2 °F - 61.7 °F 98% 30.06 in 5.0 mi Calm Calm - N/A   Mostly Cloudy
4:35 AM 60.8 °F - 60.6 °F 99% 30.06 in 1.2 mi Calm Calm - N/A   Mostly Cloudy
4:55 AM 61.3 °F - 61.0 °F 99% 30.07 in 1.5 mi Calm Calm - N/A   Mostly Cloudy
5:15 AM 61.2 °F - 61.2 °F 100% 30.06 in 0.8 mi Calm Calm - N/A   Mostly Cloudy
5:35 AM 60.3 °F - 60.3 °F 100% 30.07 in 0.2 mi Calm Calm - N/A Fog Fog
5:55 AM 59.2 °F - 59.2 °F 100% 30.07 in 0.5 mi Calm Calm - N/A Fog Fog
6:15 AM 60.1 °F - 60.1 °F 100% 30.08 in 0.5 mi Calm Calm - N/A Fog Fog
6:35 AM 59.9 °F - 59.9 °F 100% 30.08 in 2.0 mi Calm Calm - N/A   Overcast
6:55 AM 60.3 °F - 60.3 °F 100% 30.08 in 0.5 mi Calm Calm - N/A Fog Fog
7:15 AM 60.8 °F - 60.8 °F 100% 30.09 in 0.2 mi Calm Calm - N/A Fog Fog
7:35 AM 61.3 °F - 61.3 °F 100% 30.10 in 2.0 mi Calm Calm - N/A   Overcast
7:55 AM 62.1 °F - 61.7 °F 99% 30.10 in 4.0 mi Calm Calm - N/A   Overcast
8:15 AM 63.0 °F - 62.1 °F 97% 30.10 in 5.0 mi Calm Calm - N/A   Overcast
8:35 AM 64.6 °F - 63.3 °F 96% 30.11 in 7.0 mi Calm Calm - N/A   Overcast
8:55 AM 66.9 °F - 64.6 °F 92% 30.11 in 7.0 mi Calm Calm - N/A   Overcast
9:15 AM 68.4 °F - 65.3 °F 90% 30.11 in 10.0 mi Calm Calm - N/A   Mostly Cloudy
9:35 AM 70.3 °F - 66.2 °F 87% 30.11 in 10.0 mi Calm Calm - N/A   Mostly Cloudy
9:55 AM 72.9 °F - 67.1 °F 82% 30.10 in 10.0 mi Calm Calm - N/A   Scattered Clouds
10:15 AM 74.8 °F - 67.3 °F 77% 30.09 in 10.0 mi Calm Calm - N/A   Scattered Clouds
10:35 AM 76.6 °F - 67.1 °F 72% 30.08 in 10.0 mi WSW 5.8 mph - N/A   Mostly Cloudy
10:55 AM 77.4 °F - 66.9 °F 70% 30.07 in 10.0 mi West 6.9 mph - N/A   Scattered Clouds
11:15 AM 77.4 °F - 66.6 °F 69% 30.07 in 10.0 mi West 3.5 mph - N/A   Scattered Clouds
11:35 AM 78.1 °F - 67.5 °F 70% 30.07 in 10.0 mi WSW 4.6 mph - N/A   Mostly Cloudy
11:55 AM 78.6 °F - 65.7 °F 64% 30.08 in 10.0 mi Calm Calm - N/A   Overcast
12:15 PM 79.0 °F - 66.4 °F 65% 30.07 in 10.0 mi West 3.5 mph - N/A   Mostly Cloudy
12:35 PM 80.6 °F 82.5 °F 65.7 °F 60% 30.07 in 10.0 mi Calm Calm - N/A   Scattered Clouds
12:55 PM 81.1 °F 83.4 °F 66.7 °F 61% 30.06 in 10.0 mi SSW 3.5 mph - N/A   Mostly Cloudy
1:15 PM 81.7 °F 83.5 °F 64.9 °F 57% 30.05 in 10.0 mi Calm Calm - N/A   Scattered Clouds
1:35 PM 82.8 °F 84.9 °F 66.0 °F 57% 30.04 in 10.0 mi WSW 6.9 mph - N/A   Clear
1:55 PM 83.5 °F 84.9 °F 64.4 °F 52% 30.04 in 10.0 mi West 4.6 mph - N/A   Clear
2:15 PM 83.7 °F 84.9 °F 64.0 °F 51% 30.03 in 10.0 mi Calm Calm - N/A   Clear
2:35 PM 84.7 °F 86.1 °F 64.2 °F 50% 30.02 in 10.0 mi NW 3.5 mph - N/A   Clear
2:55 PM 85.6 °F 86.8 °F 63.9 °F 48% 30.01 in 10.0 mi West 8.1 mph - N/A   Clear
3:15 PM 86.0 °F 87.3 °F 64.2 °F 48% 30.00 in 10.0 mi West 6.9 mph - N/A   Clear
3:35 PM 85.8 °F 86.3 °F 62.2 °F 45% 29.99 in 10.0 mi SW 8.1 mph - N/A   Clear
3:55 PM 86.9 °F 87.2 °F 61.9 °F 43% 29.98 in 10.0 mi West 6.9 mph - N/A   Clear
4:15 PM 87.3 °F 87.2 °F 60.8 °F 41% 29.97 in 10.0 mi West 12.7 mph - N/A   Clear
4:35 PM 86.7 °F 87.0 °F 61.9 °F 43% 29.97 in 10.0 mi WSW 9.2 mph - N/A   Clear
4:55 PM 84.7 °F 85.6 °F 62.8 °F 48% 29.97 in 10.0 mi WSW 11.5 mph - N/A   Clear
5:15 PM 86.0 °F 87.1 °F 63.3 °F 47% 29.96 in 10.0 mi WSW 6.9 mph - N/A   Clear
5:35 PM 84.9 °F 86.8 °F 65.7 °F 52% 29.96 in 10.0 mi SW 9.2 mph - N/A   Clear
5:55 PM 82.4 °F 83.4 °F 62.6 °F 51% 29.96 in 10.0 mi WSW 8.1 mph 17.3 mph N/A   Clear
6:15 PM 82.6 °F 84.3 °F 64.9 °F 55% 29.96 in 10.0 mi WSW 9.2 mph - N/A   Clear
6:35 PM 81.5 °F 83.3 °F 64.8 °F 57% 29.97 in 10.0 mi West 9.2 mph - N/A   Scattered Clouds
6:55 PM 80.4 °F 82.2 °F 65.1 °F 59% 29.97 in 10.0 mi West 3.5 mph - N/A   Scattered Clouds
7:15 PM 78.3 °F - 66.2 °F 66% 29.96 in 10.0 mi South 5.8 mph - N/A   Clear
7:35 PM 77.2 °F - 64.2 °F 64% 29.98 in 10.0 mi SSW 3.5 mph - N/A   Mostly Cloudy
7:55 PM 75.6 °F - 58.8 °F 56% 29.99 in 10.0 mi Calm Calm - N/A Rain Light Rain
8:15 PM 71.6 °F - 58.5 °F 63% 30.00 in 10.0 mi East 8.1 mph - N/A   Overcast
8:35 PM 71.8 °F - 60.3 °F 67% 29.99 in 10.0 mi East 8.1 mph - N/A   Overcast
8:55 PM 72.7 °F - 61.5 °F 68% 30.04 in 10.0 mi South 13.8 mph 19.6 mph N/A   Overcast
9:15 PM 66.4 °F - 62.2 °F 86% 30.03 in 4.0 mi ENE 5.8 mph - 0.08 in Rain Rain
9:35 PM 64.4 °F - 62.1 °F 92% 30.03 in 7.0 mi Calm Calm - 0.12 in Rain Light Rain
9:55 PM 64.2 °F - 62.2 °F 93% 30.01 in 10.0 mi Calm Calm - 0.14 in Rain Rain
10:15 PM 63.5 °F - 62.8 °F 97% 30.03 in 7.0 mi Calm Calm - N/A   Scattered Clouds
10:35 PM 63.3 °F - 62.6 °F 97% 30.04 in 5.0 mi Calm Calm - N/A   Clear
10:55 PM 63.3 °F - 62.8 °F 98% 30.05 in 7.0 mi Calm Calm - N/A   Clear
11:15 PM 63.5 °F - 62.6 °F 97% 30.06 in 10.0 mi Calm Calm - N/A   Mostly Cloudy
11:35 PM 63.7 °F - 63.0 °F 97% 30.06 in 7.0 mi Calm Calm - N/A   Overcast
11:55 PM 63.5 °F - 62.8 °F 97% 30.05 in 7.0 mi Calm Calm - N/A   Overcast